This is the latest recevied weather packets stored in our database for station/object W0AKY-13. If no packets are shown the sender has not sent any weather packets the latest 10 day(s).
| Time | Temp. | Humidity | Pressure | Rain* | Wind** | Luminosity | Snow |
|---|---|---|---|---|---|---|---|
| 1788538276 | 31.67° C | 66% | 1014.5 hPa | 0 mm | - | 437 W/m² | - |
| 1788537972 | 31.67° C | 67% | 1014.6 hPa | 0 mm | - | 427 W/m² | - |
| 1788537668 | 31.67° C | 66% | 1014.4 hPa | 0 mm | - | 404 W/m² | - |
| 1788537362 | 31.67° C | 66% | 1014.4 hPa | 0 mm | - | 404 W/m² | - |
| 1788537057 | 31.67° C | 66% | 1014.4 hPa | 0 mm | - | 393 W/m² | - |
| 1788536756 | 31.11° C | 68% | 1014.4 hPa | 0 mm | - | 384 W/m² | - |
| 1788536451 | 31.11° C | 68% | 1014.3 hPa | 0 mm | - | 373 W/m² | - |
| 1788536150 | 31.11° C | 68% | 1014.4 hPa | 0 mm | - | 179 W/m² | - |
| 1788535847 | 31.11° C | 68% | 1014.4 hPa | 0 mm | - | 351 W/m² | - |
| 1788535542 | 30.56° C | 70% | 1014.5 hPa | 0 mm | - | 339 W/m² | - |
| 1788535237 | 30° C | 69% | 1014.4 hPa | 0 mm | - | 226 W/m² | - |
| 1788534933 | 30.56° C | 69% | 1014.3 hPa | 0 mm | - | 316 W/m² | - |
| 1788534632 | 30° C | 70% | 1014.4 hPa | 0 mm | - | 304 W/m² | - |
| 1788534332 | 29.44° C | 71% | 1014.6 hPa | 0 mm | - | 293 W/m² | - |
| 1788534027 | 29.44° C | 72% | 1014.4 hPa | 0 mm | - | 278 W/m² | - |
| 1788533751 | 29.44° C | 72% | 1014.3 hPa | 0 mm | - | 204 W/m² | - |
| 1788533416 | 28.89° C | 72% | 1014.4 hPa | 0 mm | - | 251 W/m² | - |
| 1788533112 | 28.33° C | 75% | 1014.4 hPa | 0 mm | - | 235 W/m² | - |
| 1788532809 | 27.78° C | 76% | 1014.2 hPa | 0 mm | - | 154 W/m² | - |
| 1788532509 | 27.78° C | 75% | 1014.3 hPa | 0 mm | - | 152 W/m² | - |
| 1788532206 | 27.22° C | 78% | 1014.3 hPa | 0 mm | - | 47 W/m² | - |
| 1788531902 | 26.67° C | 78% | 1014.2 hPa | 0 mm | - | 48 W/m² | - |
| 1788531602 | 26.67° C | 79% | 1014.3 hPa | 0 mm | - | 43 W/m² | - |
| 1788531296 | 26.67° C | 79% | 1014.2 hPa | 0 mm | - | 34 W/m² | - |
| 1788530993 | 26.11° C | 79% | 1014.4 hPa | 0 mm | - | 31 W/m² | - |
* Rain latest hour (hover to see other rain measurements)
** Current wind speed in m/s (hover to see current wind gust speed)